Terug naar catalogus

FENGYUN 1C DEB

ActiefSSO
NORAD 37714·DEBRIS·🇨🇳 China

Gelanceerd May 10, 1999 vanaf Taiyuan Satellite Launch Center

Loading…

Volgende Passages (komende 24 uur)

TLE

VersSource: Space-Track

Epoch: Sep 14, 2026, 02:34 UTC

1 37714U 99025EMF 26257.10751353  .00002869  00000-0  10159-2 0  9997
2 37714  98.9057  21.5300 0045968 356.3043   3.7795 14.34787219614557

Volg FENGYUN 1C DEB in realtime met AllMySat

Download on the App Store